Weather History for Rhinelander, WI

Change the Weather History Date:

Wednesday, March 20, 2013

  Actual Average Record
Temperature  
Mean Temperature 11 °F 29 °F  
Max Temperature 19 °F 39 °F 76 °F (2012)
Min Temperature 3 °F 19 °F -20 °F (1965)
Degree Days  
Heating Degree Days 54 36  
Month to date heating degree days 909 806  
Since 1 July heating degree days 7309 7428  
Cooling Degree Days 0 0  
Month to date cooling degree days 0 0  
Year to date cooling degree days 0 0  
Moisture  
Dew Point 0 °F    
Average Humidity 59    
Maximum Humidity 72    
Minimum Humidity 45    
Precipitation  
Precipitation T in 0.05 in 1.87 in (1921)
Month to date precipitation 1.47 0.93  
Year to date precipitation 4.27 2.97  
Snow  
Snow T in - 2.00 in (1970)
Month to date snowfall 15.3  
Since 1 July snowfall 67.9  
Snow Depth 24.00 in    
Sea Level Pressure  
Sea Level Pressure 30.01 in    
Wind  
Wind Speed 11 mph (WNW)    
Max Wind Speed 18 mph    
Max Gust Speed 26 mph    
Visibility 10 miles    
Events      
T = Trace of Precipitation, MM = Missing Value Source: NWS Daily Summary

Daily Weather History Graph

Daily Weather History Graph

Search for Another Location

Airport:

Trip Planner

Search our weather history database for the weather conditions in past years. The results will help you decide how hot, cold, wet, or windy it might be!

Date:

Astronomy

Mar. 20, 2013 Rise Set
Actual Time 7:00 AM CDT 7:10 PM CDT
Civil Twilight 6:30 AM CDT 7:40 PM CDT
Nautical Twilight 5:56 AM CDT 8:15 PM CDT
Astronomical Twilight 5:20 AM CDT 8:51 PM CDT
Moon 12:29 PM CDT (3/20) 2:56 AM CDT (3/20)
Length of Visible Light 13h 09m
Length of Day
12h 10m
First Quarter, 59% of the Moon is Illuminated
Mar 20
First Quarter
Mar 27
Full
Apr 2
Last Quarter
Apr 10
New
Apr 18
First Quarter

Hourly Weather History & Observations

Time (CDT) Temp. Windchill Dew Point Humidity Pressure Visibility Wind Dir Wind Speed Gust Speed Precip Events Conditions
12:53 AM 12.0 °F -3.4 °F -0.0 °F 59% 29.96 in 10.0 mi West 13.8 mph - N/A   Clear
1:53 AM 10.0 °F -6.5 °F -0.9 °F 61% 29.96 in 10.0 mi West 15.0 mph - N/A   Clear
2:53 AM 8.1 °F -8.4 °F -2.0 °F 64% 29.97 in 10.0 mi West 13.8 mph 21.9 mph N/A   Clear
3:53 AM 7.0 °F -9.8 °F -2.9 °F 64% 29.97 in 10.0 mi West 13.8 mph - N/A   Clear
4:53 AM 5.0 °F -12.3 °F -4.0 °F 66% 29.97 in 10.0 mi West 13.8 mph 24.2 mph N/A   Clear
5:53 AM 3.9 °F -13.0 °F -5.1 °F 66% 29.98 in 10.0 mi West 12.7 mph 21.9 mph N/A   Clear
6:53 AM 3.0 °F -15.5 °F -5.1 °F 69% 29.99 in 10.0 mi West 15.0 mph 21.9 mph N/A   Clear
7:53 AM 3.9 °F -11.3 °F -4.0 °F 70% 30.01 in 10.0 mi West 10.4 mph 20.7 mph N/A   Clear
8:53 AM 6.1 °F -12.2 °F -2.9 °F 67% 30.00 in 10.0 mi West 16.1 mph 21.9 mph N/A   Mostly Cloudy
9:53 AM 9.0 °F -5.9 °F -0.9 °F 64% 29.99 in 10.0 mi WNW 11.5 mph 20.7 mph N/A   Clear
10:53 AM 12.9 °F -0.2 °F -0.9 °F 54% 29.99 in 10.0 mi NW 10.4 mph 17.3 mph N/A   Partly Cloudy
11:53 AM 15.1 °F 0.5 °F -0.0 °F 51% 29.99 in 10.0 mi NW 13.8 mph 23.0 mph N/A   Mostly Cloudy
12:53 PM 17.1 °F 5.8 °F 1.0 °F 50% 30.00 in 10.0 mi NW 9.2 mph 20.7 mph N/A   Overcast
1:53 PM 19.0 °F 6.1 °F 1.9 °F 47% 30.00 in 10.0 mi WNW 12.7 mph 20.7 mph N/A   Overcast
2:53 PM 17.1 °F 4.3 °F 1.0 °F 50% 30.01 in 10.0 mi NW 11.5 mph 18.4 mph N/A   Overcast
3:53 PM 18.0 °F 5.4 °F 1.0 °F 48% 30.01 in 10.0 mi NW 11.5 mph 19.6 mph N/A   Overcast
4:53 PM 17.1 °F 5.0 °F 1.0 °F 50% 30.03 in 10.0 mi NW 10.4 mph - N/A   Overcast
5:53 PM 16.0 °F 2.9 °F 1.0 °F 52% 30.04 in 10.0 mi NW 11.5 mph 17.3 mph N/A   Mostly Cloudy
6:53 PM 16.0 °F 5.3 °F 1.9 °F 54% 30.06 in 10.0 mi WNW 8.1 mph 18.4 mph N/A   Overcast
7:53 PM 16.0 °F 5.3 °F 1.9 °F 54% 30.07 in 10.0 mi NW 8.1 mph - N/A   Overcast
8:53 PM 15.1 °F 4.2 °F 3.0 °F 59% 30.07 in 10.0 mi WNW 8.1 mph - N/A   Overcast
9:53 PM 14.0 °F 5.1 °F 3.9 °F 64% 30.07 in 10.0 mi WNW 5.8 mph - N/A   Overcast
10:53 PM 14.0 °F 5.1 °F 5.0 °F 67% 30.06 in 10.0 mi NW 5.8 mph - N/A   Overcast
11:53 PM 12.9 °F 3.8 °F 5.0 °F 71% 30.05 in 10.0 mi WNW 5.8 mph - N/A   Mostly Cloudy